This demonstration page uses our WeatherBlox Daily Observations layout. Learn more.

Left ArrowRight Arrow

39.08367, -84.50855

Hourly Observations for July 28, 2020

Temp ( °F °C ) Dew Point ( °F °C ) Humidity (%) Winds ( mph kmh ) Pressure ( in mb ) Visibility ( mi km ) Precip ( " mm )
12:53 am 00:53 Mostly Cloudy 73 22.8 70 21.1 90 90 N N/A 29.94 1014 10 16 N/A
1:53 am 01:53 Partly Cloudy 74 23.3 70 21.1 88 88 W 8 13 29.94 1014 10 16 N/A
2:08 am 02:08 Mostly Cloudy 74 23.3 70 21.1 88 88 W 8 13 29.93 1014 10 16 N/A
2:53 am 02:53 Cloudy 74 23.3 70 21.1 88 88 WSW 6 9 29.92 1013 10 16 N/A
3:49 am 03:49 Cloudy 75 24 72 22 89 89 W 6 9 29.91 1013 10 16 N/A
3:53 am 03:53 Cloudy 75 23.9 71 21.7 88 88 W 5 7 29.91 1013 10 16 N/A
4:08 am 04:08 Cloudy 75 23.9 71 21.7 88 88 W 5 7 29.92 1013 10 16 N/A
4:53 am 04:53 Cloudy 75 23.9 71 21.7 88 88 W 7 11 29.92 1013 10 16 N/A
5:11 am 05:11 Cloudy 75 23.9 71 21.7 88 88 W 7 11 29.92 1013 10 16 N/A
5:36 am 05:36 Cloudy 75 23.9 71 21.7 88 88 W 5 7 29.93 1014 10 16 N/A
5:53 am 05:53 Cloudy 75 23.9 71 21.7 88 88 N N/A 29.93 1014 10 16 N/A
6:03 am 06:03 Mostly Cloudy 75 23.9 71 21.7 88 88 WNW 3 6 29.94 1014 10 16 N/A
6:49 am 06:49 Partly Cloudy 75 24 72 22 89 89 WNW 5 7 29.95 1014 10 16 N/A
6:53 am 06:53 Partly Cloudy 75 23.9 71 21.7 88 88 NW 6 9 29.96 1015 10 16 N/A
7:53 am 07:53 Sunny 75 23.9 70 21.1 84 84 N N/A 29.97 1015 10 16 N/A
8:53 am 08:53 Sunny 78 25.6 68 20 71 71 N 6 9 29.98 1015 10 16 N/A
9:53 am 09:53 Sunny 80 26.7 64 17.8 58 58 NNE 5 7 30.00 1016 10 16 N/A
10:53 am 10:53 Partly Cloudy 81 27.2 62 16.7 53 53 NNE 5 7 30.00 1016 10 16 N/A
11:53 am 11:53 Partly Cloudy 82 27.8 63 17.2 53 53 N N/A 30.00 1016 10 16 N/A
12:53 pm 12:53 Sunny 83 28.3 63 17.2 51 51 SSW 5 7 30.00 1016 10 16 N/A
1:53 pm 13:53 Partly Cloudy 85 29.4 64 17.8 50 50 VRB 7 11 29.98 1015 10 16 N/A
2:53 pm 14:53 Partly Cloudy 87 30.6 63 17.2 45 45 VRB 6 9 29.96 1015 10 16 N/A
3:53 pm 15:53 Partly Cloudy 86 30 63 17.2 46 46 W 9 15 29.95 1014 10 16 N/A
4:53 pm 16:53 Sunny 85 29.4 62 16.7 46 46 SW 9 15 29.94 1014 10 16 N/A
5:53 pm 17:53 Partly Cloudy 85 29.4 61 16.1 45 45 NW 8 13 29.93 1014 10 16 N/A
6:53 pm 18:53 Sunny 86 30 60 15.6 42 42 WNW 7 11 29.93 1013 10 16 N/A
8:53 pm 20:53 Clear 78 25.6 63 17.2 60 60 N N/A 29.94 1014 10 16 N/A
9:53 pm 21:53 Clear 72 22.2 65 18.3 79 79 N N/A 29.95 1014 10 16 N/A
10:53 pm 22:53 Clear 68 20 64 17.8 87 87 N N/A 29.96 1015 10 16 N/A
11:53 pm 23:53 Clear 68 20 65 18.3 90 90 N N/A 29.97 1015 10 16 N/A

Powered by AerisWeather